Weather in Krymgireyevskoye

Russia / Stavropol Krai     44°32′34″N   42°42′48″E
temp.,
°C
wind,
m/s
gust,
m/s
humid.,
%
clouds,
%
prec.,
mm/h
press.,
hPa
HPBL,
m
5 december, sun
sun500:00+5se33566 0.0 101225
03:00+5ese1153100 0.0 101110
06:00+6wnw0151100 0.0 101110
09:00+6nnw2351100 0.0 101343
12:00+9ese1251100 0.0 1012226
15:00+10se1254100 0.0 1012197
18:00+7ssw116392 0.0 101510
21:00+6wnw226321 0.0 101610
6 december, mon
mon600:00+5nw11715 0.0 101710
03:00+4wnw118226 0.0 101910
06:00+4se22815 0.0 102010
09:00+4ese35795 0.0 1021144
12:00+9ese34515 0.0 1020368
15:00+10ese334880 0.0 1020360
18:00+6ese336130 0.0 102240
21:00+5ese34635 0.0 102251
7 december, tue
tue700:00+4ese33650 0.0 102243
03:00+4ese34681 0.0 102252
06:00+3ese46725 0.0 102288
09:00+5ese511681 0.0 1022220
12:00+9ese610541 0.0 1019359
15:00+9ese712635 0.0 1017440
18:00+6ese714830 0.0 1017353
21:00+5ese714880 0.0 1015323
8 december, wed
wed800:00+4ese7129796 0.0 1014339
03:00+5ese61090100 0.0 1013409
06:00+5ese588898 0.0 1011421
09:00+6ese468373 0.0 1012416
12:00+8ese3371100 0.0 1009382
15:00+9ne2368100 0.0 1008293
18:00+6se118597 0.0 101010
21:00+6n0084100 0.0 101010
9 december, thu
thu900:00+7wnw3468100 0.0 101146
03:00+6wnw3364100 0.0 101334
06:00+6w3379100 0.0 101429
09:00+7sw1178100 0.0 101712
12:00+10w3566100 0.0 1017447
15:00+11wnw4664100 0.0 1017503
18:00+7wnw3880100 0.0 1020150
21:00+6w358996 0.0 1021125